Location: Cheyres
(46.8153°N, 6.7877°E)
Time: 03:56:08
(UTC+00:00)

CZ-4C R/B - Pass Details

Date: 11 May 2021
Orbit: 609 x 1393 km, 63.4° (Epoch: 18 June)

Event Time Altitude Azimuth Distance (km) Brightness Sun altitude
Rises 22:16:45 0° 312° (NW) 3,961 6.7 -23.0°
Reaches altitude 10° 22:19:50 10° 299° (WNW) 3,116 5.7 -23.2°
Maximum altitude 22:25:43 25° 249° (WSW) 2,353 4.4 -23.5°
Enters shadow 22:28:58 20° 218° (SW) 2,702 4.5 -23.7°
